Flag for Sweden Weather past 2 weeks in Uppsala, Sweden

Now
39 °F

Fog.


Feels Like: 34 °F
Forecast: 34 / 47 °F
Wind: 8 mph from Southeast

Location: Stockholm / Arlanda

Current Time: Mar 27, 2015 at 12:08:54 PM

Latest Report: Mar 27, 2015 at 11:20 AM


Visibility: 1 mi

Pressure: 29.71 "Hg

Humidity: 100%

Dew point: 39 °F

Location of UppsalaLocation

Historic Weather in Uppsala — Graph

°F

Uppsala temperature yesterday

Maximum temperature yesterday: 39 °F (at 12:50 PM)
Minimum temperature yesterday: 30 °F (at 12:20 AM)
Average temperature yesterday: 36 °F

Past Weeks' High & Low Weather Summary

 TemperatureHumidityPressure
High55 °F (Mar 18, 12:50 PM)100% (Mar 13, 1:50 AM)30.92 "Hg (Mar 13, 1:50 AM)
Low16 °F (Mar 22, 1:50 AM)24% (Mar 18, 3:20 PM)29.42 "Hg (Mar 23, 9:20 PM)
Average37 °F73%30.32 "Hg
* Reported Mar 12 10:20 AM — Mar 27 10:50 AM, Uppsala, Weather by CustomWeather, © 2015

Note: Actual official high and low records may vary slightly from our data, if they occured in-between our weather recording intervals... More about our weather records

Advertising

Uppsala weather history for previous 24 hours

 ConditionsComfort  
Time TempWeatherWind HumidityBarometerVisibility
10:50 AM
Fri, Mar 27
39 °FLight rain. Partly sunny.9 mph100%29.71 "Hg4 mi
10:20 AM39 °FDrizzle. Partly sunny.10 mph100%29.71 "Hg4 mi
9:50 AM39 °FLight rain. Partly sunny.12 mph100%29.71 "Hg4 mi
9:20 AM39 °FLight rain. Partly sunny.12 mph100%29.71 "Hg4 mi
8:50 AM39 °FDrizzle. Partly sunny.13 mph100%29.71 "Hg4 mi
8:20 AM39 °FDrizzle. Partly sunny.12 mph93%29.71 "Hg5 mi
7:50 AM39 °FDrizzle. Partly sunny.13 mph93%29.71 "Hg5 mi
7:20 AM39 °FLight rain. Fog.13 mph93%29.74 "Hg4 mi
6:50 AM39 °FLight rain. Fog.13 mph93%29.74 "Hg4 mi
6:20 AM37 °FLight rain. Fog.12 mph100%29.74 "Hg4 mi
5:50 AM37 °FDrizzle. Fog.12 mph100%29.74 "Hg5 mi
5:20 AM39 °FLight rain. Passing clouds.13 mph93%29.74 "Hg5 mi
4:50 AM39 °FLight rain. Partly cloudy.13 mph93%29.74 "Hg5 mi
4:20 AM39 °FLight rain. Partly cloudy.13 mph93%29.74 "Hg5 mi
3:50 AM39 °FPassing clouds.12 mph93%29.77 "HgN/A
3:20 AM37 °FPassing clouds.12 mph93%29.77 "HgN/A
2:50 AM37 °FPassing clouds.10 mph93%29.77 "HgN/A
2:20 AM37 °FPassing clouds.10 mph93%29.77 "HgN/A
1:50 AM37 °FPassing clouds.12 mph93%29.80 "HgN/A
1:20 AM37 °FPassing clouds.13 mph93%29.80 "HgN/A
12:50 AM37 °FPassing clouds.13 mph93%29.80 "HgN/A
12:20 AM37 °FPassing clouds.13 mph93%29.80 "HgN/A
11:50 PM
Thu, Mar 26
37 °FLight rain. Passing clouds.12 mph93%29.80 "HgN/A
11:20 PM37 °FPassing clouds.13 mph93%29.83 "HgN/A
10:50 PM37 °FLight rain. Passing clouds.14 mph93%29.83 "Hg5 mi
10:20 PM37 °FLight rain. Partly cloudy.14 mph87%29.83 "HgN/A
9:50 PM37 °FLight rain. Passing clouds.14 mph87%29.83 "HgN/A
9:20 PM37 °FLight rain. Passing clouds.15 mph81%29.86 "HgN/A
8:50 PM37 °FPassing clouds.16 mph81%29.86 "HgN/A
8:20 PM37 °FPartly cloudy.17 mph81%29.86 "HgN/A
7:50 PM37 °FPassing clouds.18 mph81%29.86 "HgN/A
7:20 PM37 °FPartly cloudy.18 mph75%29.89 "HgN/A
6:50 PM37 °FPartly cloudy.17 mph75%29.89 "HgN/A
6:20 PM37 °FLight rain. Passing clouds.18 mph75%29.89 "HgN/A
5:50 PM37 °FLight rain. Partly sunny.20 mph70%29.89 "HgN/A
5:20 PM39 °FDrizzle. Partly sunny.20 mph65%29.89 "HgN/A
4:50 PM39 °FSunny.20 mph65%29.89 "Hg10 mi
4:20 PM37 °FSunny.21 mph70%29.89 "Hg10 mi
3:50 PM39 °FSunny.22 mph65%29.92 "Hg10 mi
3:20 PM39 °FPassing clouds.21 mph65%29.92 "HgN/A
2:50 PM39 °FPassing clouds.20 mph70%29.92 "HgN/A
2:20 PM39 °FPassing clouds.21 mph70%29.95 "HgN/A
1:50 PM39 °FScattered clouds.21 mph70%29.95 "HgN/A
1:20 PM39 °FPartly sunny.20 mph70%29.95 "HgN/A
12:50 PM39 °FPartly sunny.18 mph70%29.98 "HgN/A
12:20 PM37 °FPartly sunny.17 mph75%29.98 "HgN/A
Weather by CustomWeather, © 2015

See weather overviewHow to use our weather pages